When you browse on this site, cookies collect data to enhance your experience and personalize the content and advertising you see.
Visit our Privacy Policy to learn more. By continuing to use the site, you agree to this use of cookies and data.
  • In Lithuania
  • List of Countries
  • For 7 days
  • Water Temperature
  • Weather Map
  • Weather Widgets
  • user-avatar
    Login

    Hourly Weather Nizhnepodpolnyy

    Today, 27 January, Monday

    Time Temperature Precipitation Wind Pressure Humidity
    00:00 +1°C° 0 mm 2 mps 767 mmHg 82%
    01:00 +1°C° 0 mm 2 mps 767 mmHg 83%
    02:00 -1°C° 0 mm 2 mps 767 mmHg 85%
    03:00 -1°C° 0 mm 2 mps 767 mmHg 87%
    04:00 -1°C° 0 mm 3 mps 766 mmHg 88%
    05:00 -1°C° 0 mm 3 mps 766 mmHg 89%
    06:00 -1°C° 0 mm 3 mps 766 mmHg 90%
    07:00 -1°C° 0 mm 3 mps 766 mmHg 88%
    08:00 0°C° 0 mm 3 mps 766 mmHg 87%
    09:00 0°C° 0 mm 3 mps 766 mmHg 85%
    10:00 +1°C° 0 mm 3 mps 766 mmHg 78%
    11:00 +1°C° 0 mm 4 mps 766 mmHg 71%
    12:00 +3°C° 0 mm 4 mps 766 mmHg 64%
    13:00 +4°C° 0 mm 4 mps 766 mmHg 63%
    14:00 +4°C° 0 mm 4 mps 765 mmHg 63%
    15:00 +4°C° 0 mm 4 mps 765 mmHg 62%
    16:00 +3°C° 0 mm 3 mps 765 mmHg 66%
    17:00 +4°C° 0 mm 2 mps 765 mmHg 71%
    18:00 +3°C° 0 mm 2 mps 765 mmHg 76%
    19:00 +3°C° 0 mm 1 mps 765 mmHg 77%
    20:00 +3°C° 0 mm 1 mps 765 mmHg 78%
    21:00 +3°C° 0 mm 1 mps 765 mmHg 79%
    22:00 +3°C° 0 mm 1 mps 765 mmHg 80%
    23:00 +3°C° 0 mm 1 mps 765 mmHg 81%

    Tomorrow, 28 January, Tuesday

    Time Temperature Precipitation Wind Pressure Humidity
    00:00 +3°C° 0 mm 1 mps 764 mmHg 82%
    01:00 +3°C° 0 mm 1 mps 764 mmHg 83%
    02:00 +4°C° 0 mm 1 mps 764 mmHg 85%
    03:00 +4°C° 0 mm 1 mps 764 mmHg 87%
    04:00 +4°C° 0 mm 1 mps 763 mmHg 88%
    05:00 +3°C° 0 mm 2 mps 763 mmHg 90%
    06:00 +3°C° 0 mm 2 mps 763 mmHg 92%
    07:00 +3°C° 0 mm 2 mps 763 mmHg 91%
    08:00 +3°C° 0 mm 2 mps 763 mmHg 89%
    09:00 +4°C° 0 mm 2 mps 763 mmHg 88%
    10:00 +5°C° 0 mm 2 mps 763 mmHg 82%
    11:00 +6°C° 0 mm 2 mps 763 mmHg 77%
    12:00 +7°C° 0 mm 3 mps 762 mmHg 71%
    13:00 +8°C° 0 mm 3 mps 762 mmHg 68%
    14:00 +9°C° 0 mm 3 mps 762 mmHg 64%
    15:00 +9°C° 0 mm 3 mps 761 mmHg 61%
    16:00 +8°C° 0 mm 3 mps 761 mmHg 66%
    17:00 +8°C° 0 mm 3 mps 761 mmHg 71%
    18:00 +7°C° 0 mm 3 mps 761 mmHg 76%
    19:00 +5°C° 0 mm 3 mps 761 mmHg 77%
    20:00 +5°C° 0 mm 3 mps 761 mmHg 78%
    21:00 +4°C° 0 mm 3 mps 761 mmHg 80%
    22:00 +4°C° 0 mm 3 mps 760 mmHg 80%
    23:00 +4°C° 0 mm 4 mps 760 mmHg 80%

    Day after tomorrow, 29 January, Wednesday

    Time Temperature Precipitation Wind Pressure Humidity
    00:00 +3°C° 0 mm 4 mps 760 mmHg 80%
    01:00 +3°C° 0 mm 4 mps 759 mmHg 80%
    02:00 +3°C° 0 mm 4 mps 759 mmHg 80%
    03:00 +3°C° 0 mm 4 mps 759 mmHg 80%
    04:00 +2°C° 0 mm 5 mps 759 mmHg 81%
    05:00 +2°C° 0 mm 5 mps 758 mmHg 81%
    06:00 +2°C° 0 mm 5 mps 758 mmHg 81%
    07:00 +2°C° 0.4 mm 5 mps 758 mmHg 83%
    08:00 +2°C° 0.4 mm 6 mps 758 mmHg 85%
    09:00 +2°C° 0.4 mm 6 mps 758 mmHg 87%
    10:00 +3°C° 0.8 mm 6 mps 758 mmHg 88%
    11:00 +3°C° 0.8 mm 6 mps 758 mmHg 89%
    12:00 +3°C° 0.8 mm 6 mps 757 mmHg 91%
    13:00 +4°C° 0.2 mm 6 mps 757 mmHg 89%
    14:00 +4°C° 0.2 mm 6 mps 757 mmHg 88%
    15:00 +5°C° 0.2 mm 6 mps 756 mmHg 87%
    16:00 +5°C° 0.3 mm 6 mps 756 mmHg 88%
    17:00 +5°C° 0.3 mm 6 mps 756 mmHg 89%
    18:00 +5°C° 0.3 mm 6 mps 756 mmHg 90%
    19:00 +5°C° 0.4 mm 6 mps 756 mmHg 90%
    20:00 +5°C° 0.4 mm 6 mps 756 mmHg 91%
    21:00 +5°C° 0.4 mm 6 mps 756 mmHg 91%
    22:00 +5°C° 0 mm 6 mps 756 mmHg 90%
    23:00 +5°C° 0 mm 6 mps 755 mmHg 89%

    30 January, Thursday

    Time Temperature Precipitation Wind Pressure Humidity
    00:00 +5°C° 0 mm 6 mps 754 mmHg 88%
    01:00 +5°C° 0.6 mm 7 mps 754 mmHg 86%
    02:00 +5°C° 0.6 mm 8 mps 754 mmHg 85%
    03:00 +5°C° 0.6 mm 8 mps 754 mmHg 84%
    04:00 +4°C° 1.2 mm 8 mps 754 mmHg 81%
    05:00 +3°C° 1.2 mm 7 mps 755 mmHg 77%
    06:00 +3°C° 1.2 mm 6 mps 755 mmHg 74%
    07:00 +2°C° 0 mm 6 mps 756 mmHg 74%
    08:00 +2°C° 0 mm 6 mps 757 mmHg 75%
    09:00 +2°C° 0 mm 5 mps 757 mmHg 75%
    10:00 +3°C° 0 mm 6 mps 757 mmHg 69%
    11:00 +4°C° 0 mm 6 mps 757 mmHg 63%
    12:00 +5°C° 0 mm 7 mps 757 mmHg 57%
    13:00 +5°C° 0 mm 7 mps 757 mmHg 53%
    14:00 +5°C° 0 mm 6 mps 757 mmHg 50%
    15:00 +7°C° 0 mm 6 mps 757 mmHg 47%
    16:00 +6°C° 0 mm 5 mps 757 mmHg 53%
    17:00 +5°C° 0 mm 4 mps 757 mmHg 60%
    18:00 +4°C° 0 mm 3 mps 756 mmHg 67%
    19:00 +4°C° 0 mm 4 mps 757 mmHg 69%
    20:00 +4°C° 0 mm 4 mps 757 mmHg 71%
    21:00 +3°C° 0 mm 5 mps 757 mmHg 74%
    22:00 +3°C° 0 mm 5 mps 757 mmHg 75%
    23:00 +2°C° 0 mm 5 mps 757 mmHg 76%

    31 January, Friday

    Time Temperature Precipitation Wind Pressure Humidity
    00:00 +2°C° 0 mm 5 mps 757 mmHg 77%
    01:00 +2°C° 0 mm 5 mps 757 mmHg 80%
    02:00 +2°C° 0 mm 5 mps 756 mmHg 83%
    03:00 +2°C° 0 mm 5 mps 756 mmHg 87%
    04:00 +1°C° 0 mm 4 mps 756 mmHg 88%
    05:00 +1°C° 0 mm 4 mps 756 mmHg 89%
    06:00 +1°C° 0 mm 4 mps 756 mmHg 89%
    07:00 +1°C° 0 mm 4 mps 757 mmHg 88%
    08:00 +1°C° 0 mm 4 mps 757 mmHg 87%
    09:00 +1°C° 0 mm 4 mps 757 mmHg 85%
    10:00 +1°C° 0 mm 4 mps 757 mmHg 81%
    11:00 +3°C° 0 mm 4 mps 757 mmHg 76%
    12:00 +4°C° 0 mm 4 mps 757 mmHg 71%
    13:00 +4°C° 0 mm 4 mps 756 mmHg 72%
    14:00 +4°C° 0 mm 4 mps 756 mmHg 73%
    15:00 +4°C° 0 mm 4 mps 756 mmHg 73%
    16:00 +4°C° 0 mm 4 mps 756 mmHg 77%
    17:00 +3°C° 0 mm 3 mps 757 mmHg 81%
    18:00 +3°C° 0 mm 3 mps 757 mmHg 85%
    19:00 +3°C° 0 mm 3 mps 757 mmHg 86%
    20:00 +3°C° 0 mm 3 mps 757 mmHg 87%
    21:00 +4°C° 0 mm 2 mps 758 mmHg 87%
    22:00 +3°C° 0 mm 2 mps 758 mmHg 88%
    23:00 +3°C° 0 mm 2 mps 758 mmHg 88%

    1 February, Saturday

    Time Temperature Precipitation Wind Pressure Humidity
    00:00 +3°C° 0 mm 2 mps 758 mmHg 88%
    01:00 +3°C° 0 mm 2 mps 758 mmHg 89%
    02:00 +2°C° 0 mm 2 mps 758 mmHg 89%
    03:00 +2°C° 0 mm 2 mps 758 mmHg 90%
    04:00 +2°C° 0 mm 2 mps 758 mmHg 91%
    05:00 +2°C° 0 mm 1 mps 758 mmHg 92%
    06:00 +2°C° 0 mm 1 mps 758 mmHg 93%
    07:00 +2°C° 0 mm 1 mps 758 mmHg 92%
    08:00 +2°C° 0 mm 1 mps 759 mmHg 91%
    09:00 +2°C° 0 mm 0 mps 759 mmHg 91%
    10:00 +2°C° 0 mm 0 mps 759 mmHg 84%
    11:00 +4°C° 0 mm 1 mps 759 mmHg 77%
    12:00 +5°C° 0 mm 1 mps 759 mmHg 70%
    13:00 +5°C° 0 mm 1 mps 760 mmHg 66%
    14:00 +5°C° 0 mm 2 mps 760 mmHg 63%
    15:00 +5°C° 0 mm 2 mps 760 mmHg 59%
    16:00 +5°C° 0 mm 2 mps 760 mmHg 63%
    17:00 +4°C° 0 mm 2 mps 760 mmHg 67%
    18:00 +5°C° 0 mm 1 mps 761 mmHg 71%
    19:00 +5°C° 0 mm 1 mps 761 mmHg 74%
    20:00 +4°C° 0 mm 1 mps 761 mmHg 77%
    21:00 +4°C° 0 mm 1 mps 762 mmHg 79%
    22:00 +4°C° 0 mm 1 mps 762 mmHg 81%
    23:00 +4°C° 0 mm 1 mps 762 mmHg 83%
    Show more